Location: Gro�bocka
(50.8204°N, 11.9702°E)
Time: 05:41:49
(UTC+00:00)

SKYMED 3 - Pass Details

Date: 29 October 2020
Orbit: 621 x 623 km, 97.9° (Epoch: 01 December)

Event Time Altitude Azimuth Distance (km) Brightness Sun altitude
Rises 17:24:33 0° 14° (NNE) 2,918 7.8 -15.1°
Reaches altitude 10° 17:26:46 10° 16° (NNE) 2,006 7.0 -15.5°
Maximum altitude 17:31:08 80° 104° (ESE) 639 4.5 -16.2°
Drops below altitude 10° 17:35:28 10° 192° (SSW) 1,988 7.3 -16.9°
Sets 17:37:39 0° 193° (SSW) 2,890 8.2 -17.2°
